Timeline UpdatesTrip UpdatesNews PostsPvt PostsTravel TipsAdmin PostsConv PostsFollowed PostsChat RequestsBlog PostsPNR Posts

Disclaimer
Search
 
 
Thu Sep 18, 2014 01:09:09 ISTHomeTrainsΣChainsAtlasPNRForumGalleryNewsFAQTripsMembersLoginFeedback
No Recent News for this Train
Other Trains in the News **new
Latest...
X
Mon Aug 19, 2013 (05:50PM)
⇐ Return Journey: Train# 19115

19116/Sayaji Nagari Express

Time-Table HAS CHANGED.
Sep 01 (11:11PM)
Change Departure Station:
Change Arrival Station:
Post a Train Travel TipPost a Train Travel Tip **new
Post a Comment/Question/Picture/VideoPost a Comment/Question/Picture/Video
Inaugural Run
Mon Jan 01, 2001
Pantry/Catering
✕ NO Pantry Car
✓ Catering Avbl
Loco/Rake Reversals
GIMB/Gandhidham Junction (3);
RSA - Rake Sharing
19115/19116/19131/19132 has RSA.
Rake/Coach Composition
BHUJ to GIMB: Loco-SLR-Gen-Gen-H1-A1-B1-B2-S12-S11-S10-S9-S8-S7-S6-S5-S4-S3-S2-S1-Gen-Gen-SLR; GIMB to BDTS: Loco-SLR-Gen-Gen-S1-S2-S3-S4-S5-S6-S7-S8-S9-S10-S11-S12-B2-B1-A1-H1-Gen-Gen-SLR
Loco
BHUJ-ADI: RTM WDM-3A/3D ADI-BDTS: BRC WAP-4/4E/5
News    PNR    Forum    Time-Table    Availability    Fare Chart    Map    Arr/Dep History    Trips    Gallery    ΣChains    X/O    Timeline    
Travel Time: 9h 5m    13 halts    Distance: 459 km    Avg Speed: 50 km/hr
Type: Mail/Express
Zone: WR/Western
Departs @ 22:15
Platform# 1
SMTWTFS
Bhuj/BHUJ 
Arrives @ 07:20 +1 night
Platform# 1
SMTWTFS
Vadodara Junction/BRC 

13 halts. 65 intermediate Stations between Bhuj and Vadodara Junction

Hide intermediate Stations  Show Old Time-Table

#CodeStation NameX/OArrivesAvgDepartsAvgHaltPFDay#KmSpeedElevZoneAddress
1BHUJBhuj (3)»  -22:15-110.07689mWRBhuj - 370201, Gujarat
1.1MADPMadhapur Road  22:22-22:22-  18.6 76107mWRSH 42, Gujarat
1.2KEMAKukma (1)  22:25-22:25-  112.6 76128mWRKutch, Gujarat
1.3RUTRatnal (1)  22:36-22:36-  126.0 76120mWRSH 46, Gujarat
2AJEAnjar (1)  22:51 22:49-22:53 22:51-2m1143.04453mWRAnjar, Gujarat
3AIAdipur Junction (2)  23:03 23:01-23:05 23:03-2m2150.33136mWRDist. Kachchh, Gujarat
3.1GPPRGopalpur  23:09-23:09-  153.2 3127mWRGandhidham, Gujarat
4GIMBGandhidham Junction (3)23:20-23:40-20m1159.27312mWRGandhidham, Gujarat
4.1GIMCGandhidham Cabin  23:42-23:42-  162.1 7313mWRKandla Port Rd, Gujarat
4.2BMSBBhimasar (3)  23:51-23:51-  173.2 7326mWRSH 50, Gujarat
4.3CHIBChirai (3)  00:00-00:00-  283.8 7312mWRChirai Moti, Gujarat
5BCOBBhachau (3)  00:13 00:11-00:15 00:13-2m2297.03744mWRBhachau, Gujarat
5.1VONBVondh (1)  00:22-00:22-  2102.2 3724mWRVondh, Gujarat
6SIOBSamakhiali Junction (3)  00:39-00:41-2m22112.96542mWRSamakhiali, Gujarat
6.1KATRKatariya  00:51-00:51-  2123.7 6543mWRNational Highway 27, Gujarat
6.2SRBRSurbari  01:02-01:02-  2136.2 656mWRNational Highway 27, Gujarat
7MALBMaliya Miyana Junction (2)  01:17-01:19-2m--2152.1756mWRMalia, Gujarat
7.1WDHRWadharva  01:26-01:26-  2161.4 7510mWRWadharva, Gujarat
7.2KHXBKhakhrechi Bg  01:33-01:33-  2169.8 7516mWRState Highway 321, Gujarat
7.3DVYDevaliya  01:42-01:42-  2180.4 7534mWRState Highway 7, Gujarat
7.4DHNLDhanala  01:48-01:48-  2188.0 7538mWRState Highway 7, Gujarat
8HVDHalvad  01:58 01:56-02:00 01:58-2m--2198.25346mWRHalvad, Gujarat
8.1SUKSukhpur  02:06-02:06-  2205.6 5339mWRsukhpur, Gujarat
8.2CULChuliX  02:16-02:16-  2214.4 5351mWRSaladi Railway Station, Gujarat
9DHGDhrangadhra Junction (3)  02:33-02:35-2m--2229.05754mWRDhrangadhra, Gujarat
9.1VSVVasadva  02:52-02:52-  2245.6 5721mWRDhg - Malwan, Gujarat
9.2JTXJatpipli  03:04-03:04-  2257.0 5725mWRDhg - Malwan, Gujarat
9.3BAJNBajana  03:12-03:12-  2264.1 5712mWRState Highway 19, Gujarat
9.4SADLSadlaX  03:21-03:21-  2272.9 5715mWRSadla, Gujarat
9.5JNJhund  03:29-03:29-  2280.8 5723mWRState Highway 7, Gujarat
10VGViramgam Junction (5)X  03:43-03:45-2m32293.74929mWRViramgam, Gujarat
10.1XSKSokaliX  03:53-03:53-  2299.9 4927mWRSokali, Gujarat
10.2JKAJakhvada  04:00-04:00-  2306.0 4931mWRState Highway 17, Gujarat
10.3VCNVirochannagar  04:10-04:10-  2313.7 4933mWRState Highway 17, Gujarat
10.4CEChharodi  04:17-04:17-  2320.0 4929mWRSH 17, Gujarat
10.5WSEVasan IyawaX  04:24-04:24-  2325.7 4936mWRState Highway 17, Gujarat
10.6SAUSanand  04:30-04:30-  2330.7 4940mWRSanand, Gujarat
10.7GGMGora Ghuma  04:38-04:38-  2337.0 4945mWRParthna Upvan Rd, Gujarat
10.8ABDAmbli RoadX  04:44-04:44-  2342.3 4950mWRAhmedabad, Gujarat
10.9CLDYChandlodiya  04:51-04:51-  2348.0 4959mWRAhmedabad, Gujarat
10.10SBTFSabarmati F Cabin  04:57-04:57-  2352.7 4955mWRAhmedabad, Gujarat
10.11SBISabarmati Junction (3)  04:58-04:58-  2353.6 4955mWRAhmadabad, Gujarat
10.12SBTSabarmati Junction (3)  04:58-04:58-  2353.6 4952mWRAhmedabad, Gujarat
10.13SBTASabarmati A Cabin  05:01-05:01-  2356.0 4956mWRSabarmati A Cabin, Gujarat
11ADIAhmedabad Junction (12)X05:05-05:25-20m62359.12451mWRAhmedabad, Gujarat
11.1KKFKankariaX  05:30-05:30-  2360.9 2448mWRAhmedabad, Gujarat
12MANManinagar (2)  05:35 05:33-05:37 05:35-2m22362.36550mWRAhmadabad, Gujarat
12.1VTAVatva (4)X  05:39-05:39-  2367.1 6549mWRDist. Ahmedabad 382445, Gujarat
12.2GERGeratpur (2)  05:44-05:44-  2372.4 6544mWRAhmadabad, Gujarat
12.3BJDBarejadi Nandej (3)X  05:47-05:47-  2375.7 6542mWRBareja-Barejadi Rd, Gujarat
12.4KANJKanij (3)  05:51-05:51-  2380.1 6539mWRBareja-Barejadi Rd, Gujarat
12.5NEPNenpur (2)X  05:54-05:54-  2383.0 6535mWRState Highway 3, Gujarat
12.6MHDMahemdavad Kheda Road (4)X  05:58-05:58-  2387.1 6537mWRMahemdavad, Gujarat
12.7GTEGothaj (2)X  06:05-06:05-  2395.4 6532mWRState Highway 3, Gujarat
13NDNadiad Junction (4)X  06:16 06:14-06:18 06:16-2m12404.76237mWRNadiad, Gujarat
13.1UTDUtarsanda (4)X  06:21-06:21-  2410.2 6240mWRUttarsanda, Gujarat
13.2KBRVKanjari Boriyavi Junction (4)X  06:27-06:27-  2415.7 6239mWRKanjari, Gujarat
14ANNDAnand Junction (6)X  06:36 06:34-06:38 06:36-2m12423.24944mWRAnand, Gujarat
14.1VXDVadod (3)X  06:44-06:44-  2430.0 4944mWRAnand District, Gujarat
14.2ADDAdas Road (4)X  06:49-06:49-  2434.1 4942mWRNational Highway 8, Gujarat
14.3VDAVasad Junction (3)  06:55-06:55-  2438.7 4940mWRVasad, Gujarat
14.4NDRNandesari (2)X  07:01-07:01-  2443.7 4942mWRNandesari, Gujarat
14.5RNORanoli (2)  07:06-07:06-  2447.9 4939mWRVadodara District, Gujarat
14.6KRCAKarachiya YardX  07:09-07:09-  2449.7 4939mWRVadodara, Gujarat
14.7BJWBajva (3)X  07:11-07:11-  2451.7 4938mWRVadodara, Gujarat
14.8BRGYVadodara D Cabin  07:19-07:19-  2458.3 4936mWRVadodara, Gujarat
15BRCVadodara Junction (7)•X  07:20-07:25-5m12458.93636mWRVadodara 390005, Gujarat
16VSVishvamitri (4)X  07:32 07:30-07:33 07:32-1 2m12461.99030mWRVadodara, Gujarat
16.1MPRMakarpura (4)  07:36-07:36-  2467.6 9030mWRVadodara, Gujarat
16.2VRMVarnama (2)X  07:40-07:40-  2473.2 9028mWRVadodara, Gujarat
16.3ITAItola (4)  07:42-07:42-  2477.2 9027mWRNational Highway 8 Vadodara, Gujarat
16.4KSPRKashipura Sarar (2)  07:45-07:45-  2481.0 9026mWRGIDC Industrial Area, Gujarat
17MYGMiyagam Karjan (2)  07:51 07:50-07:52 07:51-1m12488.87629mWRKarjan, Gujarat
17.1MYGLMiyagam Karjan Junction NG  07:51-07:51-  2488.8 760mWRKarjan, Gujarat
17.2LKDLakodara (4)  07:57-07:57-  2496.8 7626mWRNH 8, Gujarat
18PLJPalej (4)  08:04 08:03-08:05 08:04-1m22504.04429mWRPalej, Gujarat
18.1VREVarediya (4)XO  08:13-08:13-  2510.6 4421mWRNH 8, Gujarat
18.2NIUNabipur (3)X  08:22-08:22-  2517.4 4424mWRNabipur, Gujarat
18.3CVJChavaj (2)  08:32-08:32-  2524.4 4420mWRBharuch, Gujarat
19BHBharuch Junction (5)  08:41 08:39-08:43 08:41-2m42529.45619mWRBharuch, Gujarat
20AKVAnkleshwar Junction (4)X  08:53 08:51-08:55 08:53-2m22538.84619mWRAnkleshwar, Gujarat
20.1SNJLSanjali (2)X  09:01-09:01-  2544.9 4623mWRSanjali, Gujarat
20.2PAOPanoli (3)  09:06-09:06-  2549.1 4629mWRPanoli, Gujarat
20.3HATHathuran (2)XO  09:11-09:11-  2552.9 4632mWRKosamba, Gujarat
21KSBKosamba Junction (3)X  09:18 09:17-09:19 09:18-1m22557.34830mWRKosamba, Gujarat
21.1KIMKim (2)X  09:28-09:28-  2565.1 4818mWRNH 8, Gujarat
21.2KDSDKudsad (2)  09:31-09:31-  2567.9 4818mWRNH 8, Gujarat
21.3SYNSayan (3)X  09:40-09:40-  2575.0 4821mWRSayan Satellite town, Gujarat
21.4GTXGothangam (2)  09:44-09:44-  2578.0 4819mWRAmroli Sayan Rd, Gujarat
21.5KSEKosad (2)X  09:48-09:48-  2581.7 4817mWRSurat, Gujarat
21.6URNUtran (3)  09:52-09:52-  2584.8 4815mWRSurat, Gujarat
22STSurat (4)X  09:57-10:00-3m22588.78519mWRSurat 395001, Gujarat
22.1UDNUdhna Junction (3)  10:03-10:03-  2592.7 8516mWRUdhna 394210, Gujarat
22.2BHETBhestan (2)X  10:06-10:06-  2597.5 8513mWRSurat, Gujarat
22.3SCHSachin (3)  10:10-10:10-  2603.2 8511mWRKansad Road Sachin, Gujarat
22.4MRLMaroli (3)  10:15-10:15-  2609.9 8515mWRMaroli, Gujarat
23NVSNavsari (3)  10:21-10:23-2m22618.38514mWRNavsari, Gujarat
23.1GNSTGandhi Smriti (2)X  10:25-10:25-  2621.3 8516mWRGandhi Smriti Navsari, Gujarat
23.2HXRHansapore (2)  10:26-10:26-  2622.9 8515mWRHansapore, Gujarat
23.3VDHVedchha (3)  10:29-10:29-  2626.8 8513mWRNavsari, Gujarat
23.4ACLAncheli (2)  10:31-10:31-  2630.1 8520mWRNavsari, Gujarat
23.5AMLAmalsad (3)  10:34-10:34-  2633.9 8512mWRAmalsad, Gujarat
24BIMBilimora Junction (4)  10:38-10:40-2m22639.55411mWRBilimora, Gujarat
24.1JRSJoravasan (2)  10:44-10:44-  2643.4 5415mWRJoravasan, Gujarat
24.2DGIDungri (3)X  10:50-10:50-  2648.5 5420mWRNH 8, Gujarat
25BLValsad (3)X  11:00-11:02-2m32657.48315mWRValsad, Gujarat
25.1ATULAtul (3)  11:07-11:07-  2664.1 8322mWRValsad, Gujarat
25.2PADPardi (3)  11:10-11:10-  2668.1 8319mWRValsad, Gujarat
25.3UVDUdvada (3)X  11:14-11:14-  2674.1 8318mWRUdvada, Gujarat
25.4BAGDBagwada (2)  11:16-11:16-  2677.0 8322mWRNH8, Gujarat
26VAPIVapi (3)  11:21-11:23-2m22683.77727mWRVapi, Gujarat
26.1KEBKarambeli (2)X  11:28-11:28-  2690.1 7729mWRNational Highway 8, Gujarat
26.2BLDBhilad (3)  11:32-11:32-  2694.9 7733mWRBhilad, Gujarat
26.3SJNSanjan (3)  11:41-11:41-  2706.5 7722mWRSanjan, Gujarat
26.4UBRUmbargam Road (3)  11:45-11:45-  2711.9 7730mWRUmbergaon, Gujarat
26.5BRRDBordi Road (2)  11:48-11:48-  2716.1 7717mWRBordi, Maharashtra
26.6GVDGholvad (4)  11:52-11:52-  2721.0 7714mWRGholvad, Maharashtra
27DRDDahanu Road (5)X  12:01-12:03-2m22732.27012mWRDahanu, Maharashtra
27.1VGNVangaon (3)X  12:14-12:14-  2744.5 7011mWRDist. Palghar, Maharashtra
27.2BORBoisar (3)  12:22-12:22-  2753.9 7017mWRBoisar Tel.no-02525-266626, Maharashtra
27.3UOIUmroli (2)X  12:26-12:26-  2758.8 708mWRBoisar, Maharashtra
27.4PLGPalghar (3)  12:31-12:31-  2765.2 7019mWRPalghar, Maharashtra
27.5KLVKelve Road (3)  12:38-12:38-  2773.6 7010mWRDist. Palghar, Maharashtra
27.6SAHSaphale (2)X  12:44-12:44-  2780.0 708mWRDist. Palghar, Maharashtra
27.7VTNVaitarna (2)XO  12:51-12:51-  2787.8 703mWRDist. Palghar, Maharashtra
27.8VRVirar (8)X  12:58-12:58-  2796.3 706mWRDist. Palghar, Maharashtra
27.9NSPNallasopara (4)  13:01-13:01-  2800.5 705mWRNallasopara station Rd, Maharashtra
27.10BSRVasai Road (7)  13:05-13:05-  2804.7 707mWRVasai 401202, Maharashtra
27.11NIGNaigaon (4)X  13:08-13:08-  2808.5 705mWRNaigaon West, Maharashtra
27.12BYRBhayandar (6)X  13:12-13:12-  2813.1 706mWRThane, Maharashtra
27.13MIRAMira Road (4)  13:15-13:15-  2816.4 703mWRMira Bhayandar, Maharashtra
27.14DICDahisar (4)  13:18-13:18-  2819.8 7014mWRMumbai, Maharashtra
28BVIMumbai Borivali (8)X  13:17 13:20-13:22-5 2m52822.12619mWRMumbai - 400092, Maharashtra
28.1KILEKandivli (4)  13:28-13:28-  2824.9 2614mWRMumbai, Maharashtra
28.2MDDMalad (4)  13:33-13:33-  2827.0 2618mWRMumbai-400064, Maharashtra
28.3GMNGoregaon (5)X  13:39-13:39-  2829.4 2615mWRMumbai - 400104, Maharashtra
28.4JOSJogeshwari (4)O  13:46-13:46-  2832.5 2614mWRMumbai, Maharashtra
28.5ADHMumbai Andheri (9)O  13:51-13:51-  2834.7 2612mWRMumbai, Maharashtra
28.6VLPVille Parle (6)X  13:55-13:55-  2836.7 2611mWRMumbai, Maharashtra
28.7STCSanta Cruz (6)  14:00-14:00-  2838.6 2610mWRMumbai, Maharashtra
28.8KHARKhar (6)  14:03-14:03-  2840.0 267mWRMumbai, Maharashtra
29BDTSMumbai Bandra Terminus (5)  14:05--42840.9-4mWRMumbai 400050, Maharashtra
Scroll to Top
Scroll to Bottom